Weather in Nashville

United States     36˚09′53″N   86˚46′59″W
temp.,
°C
wind,
m/s
gust,
m/s
humid.,
%
clouds,
%
prec.,
mm/h
press.,
hPa
HPBL,
m
29 november, sun
sun2900:00+7˚ne125635 0.0 1022150
03:00+7˚e1356100 0.0 1020156
06:00+7˚e1262100 0.0 1020136
09:00+9˚e2353100 0.0 1018259
12:00+13˚ssw2553100 0.0 1016607
15:00+13˚sw3663100 0.0 1013699
18:00+10˚nnw3777100 1.1 1012483
21:00+7˚nnw51083100 4.9 1010640
30 november, mon
mon3000:00+6˚nw5986100 14.8 1008554
03:00+4˚nnw51291100 3.6 1009724
06:00+6˚nw61080100 3.8 1011917
09:00+2˚nw61184100 0.3 1013791
12:00+2˚wnw51087100 0.6 1014840
15:00+2˚nw61089100 0.7 1014854
18:00nw61084100 1.3 1016981
21:00nw596992 0.1 10181050
1 december, tue
tue100:00−1˚wnw496859 0.1 1019726
03:00−2˚wnw49660 0.0 1019602
06:00−2˚wnw49650 0.0 1021575
09:00w47560 0.0 1022656
12:00+3˚w36440 0.0 1021976
15:00+5˚w47380 0.0 10201004
18:00+3˚w37460 0.0 1022729
21:00+2˚w26480 0.0 1023318
2 december, wed
wed200:00+1˚sw13530 0.0 1024157
03:00+1˚wsw24570 0.0 1025201
06:00+1˚ssw125913 0.0 1027129
09:00+4˚s234866 0.0 1028289
12:00+8˚sse233433 0.0 1025541
15:00+9˚se23347 0.0 1024617
18:00+8˚se244753 0.0 1025239
21:00+7˚se3649100 0.0 1026326
3 december, thu
thu300:00+7˚se3849100 0.0 1025384
03:00+6˚s2663100 0.8 1024433
06:00+5˚se3875100 3.7 1024601
09:00+5˚sse4979100 2.7 1024682
12:00+5˚sse4774100 3.8 1022639
15:00+7˚ssw367176 0.0 1021800
18:00+7˚ssw377588 0.1 1023874
21:00+5˚w486880 0.1 1024600